This is the latest recevied weather packets stored in our database for station/object IW3HBX-13. If no packets are shown the sender has not sent any weather packets the latest 10 day(s).
| Time | Temp. | Humidity | Pressure | Rain* | Wind** | Luminosity | Snow |
|---|---|---|---|---|---|---|---|
| 1777642209 | 20.56° C | 30% | 1026.6 hPa | 0 mm | - | 656 W/m² | - |
| 1777641847 | 20.56° C | 29% | 1026.5 hPa | 0 mm | - | 668 W/m² | - |
| 1777641487 | 20.56° C | 30% | 1026.7 hPa | 0 mm | - | 688 W/m² | - |
| 1777641127 | 19.44° C | 30% | 1026.8 hPa | 0 mm | - | 701 W/m² | - |
| 1777640767 | 20.56° C | 30% | 1026.8 hPa | 0 mm | - | 710 W/m² | - |
| 1777640047 | 19.44° C | 31% | 1026.9 hPa | 0 mm | - | 735 W/m² | - |
| 1777639687 | 20.56° C | 31% | 1027 hPa | 0 mm | - | 747 W/m² | - |
| 1777639327 | 21.11° C | 30% | 1027.1 hPa | 0 mm | - | 756 W/m² | - |
| 1777638967 | 20.56° C | 31% | 1027.2 hPa | 0 mm | - | 765 W/m² | - |
| 1777638607 | 20.56° C | 30% | 1027.3 hPa | 0 mm | - | 771 W/m² | - |
| 1777638247 | 20.56° C | 29% | 1027.3 hPa | 0 mm | - | 777 W/m² | - |
| 1777637887 | 21.11° C | 29% | 1027.4 hPa | 0 mm | - | 783 W/m² | - |
| 1777637527 | 20.56° C | 29% | 1027.3 hPa | 0 mm | - | 789 W/m² | - |
| 1777637167 | 20° C | 29% | 1027.4 hPa | 0 mm | - | 793 W/m² | - |
| 1777636447 | 19.44° C | 30% | 1027.5 hPa | 0 mm | - | 797 W/m² | - |
| 1777636088 | 18.89° C | 30% | 1027.6 hPa | 0 mm | - | 800 W/m² | - |
| 1777635727 | 18.89° C | 30% | 1027.6 hPa | 0 mm | - | 807 W/m² | - |
| 1777635367 | 19.44° C | 30% | 1027.7 hPa | 0 mm | - | 813 W/m² | - |
| 1777635007 | 19.44° C | 30% | 1027.8 hPa | 0 mm | - | 814 W/m² | - |
| 1777634649 | 20° C | 30% | 1027.8 hPa | 0 mm | - | 815 W/m² | - |
| 1777634287 | 18.89° C | 30% | 1028 hPa | 0 mm | - | 819 W/m² | - |
| 1777633930 | 17.78° C | 31% | 1028 hPa | 0 mm | - | 815 W/m² | - |
| 1777633569 | 19.44° C | 31% | 1028 hPa | 0 mm | - | 817 W/m² | - |
| 1777632847 | 18.89° C | 31% | 1028.2 hPa | 0 mm | - | 816 W/m² | - |
| 1777632488 | 19.44° C | 31% | 1028.2 hPa | 0 mm | - | 821 W/m² | - |
* Rain latest hour (hover to see other rain measurements)
** Current wind speed in m/s (hover to see current wind gust speed)